This demonstration page uses our WeatherBlox Daily Observations layout. Learn more.

Left ArrowRight Arrow

44.8408, -93.29828

Hourly Observations for December 24, 2017

Temp ( °F °C ) Dew Point ( °F °C ) Humidity (%) Winds ( mph kmh ) Pressure ( in mb ) Visibility ( mi km ) Precip ( " mm )
12:53 am 00:53 Mostly Cloudy 16 -8.9 10 -12.2 77 77 WSW 7 11 30.24 1024 10 16 0.00 0.00
1:53 am 01:53 Cloudy 17 -8.3 10 -12.2 74 74 SW 6 9 30.22 1023 10 16 0.00 0.00
2:53 am 02:53 Cloudy 17 -8.3 10 -12.2 74 74 SW 8 13 30.23 1024 10 16 0.00 0.00
3:53 am 03:53 Cloudy 16 -8.9 10 -12.2 77 77 SW 7 11 30.23 1024 10 16 0.00 0.00
4:53 am 04:53 Cloudy 16 -8.9 10 -12.2 77 77 WSW 7 11 30.21 1023 10 16 0.00 0.00
5:53 am 05:53 Cloudy 16 -8.9 10 -12.2 77 77 SW 8 13 30.19 1023 10 16 0.00 0.00
6:53 am 06:53 Cloudy 16 -8.9 9 -12.8 74 74 SW 10 17 30.18 1022 10 16 0.00 0.00
7:53 am 07:53 Cloudy 16 -8.9 9 -12.8 74 74 SSW 7 11 30.17 1022 10 16 0.00 0.00
8:53 am 08:53 Cloudy 16 -8.9 9 -12.8 74 74 SW 7 11 30.16 1021 10 16 0.00 0.00
9:53 am 09:53 Cloudy 17 -8.3 10 -12.2 74 74 SW 9 15 30.17 1022 10 16 0.00 0.00
10:53 am 10:53 Cloudy 18 -7.8 11 -11.7 74 74 WSW 9 15 30.16 1021 10 16 0.00 0.00
11:53 am 11:53 Cloudy with Light Snow 19 -7.2 14 -10 81 81 W 13 20 30.14 1021 4 6 0.00 0.03
12:10 pm 12:10 Cloudy with Light Snow 20 -6.7 15 -9.4 81 81 W 10 17 30.15 1021 5 8 0.00 0.03
12:46 pm 12:46 Mostly Cloudy 21 -6.1 14 -10 74 74 WSW 10 17 30.12 1020 10 16 0.00 0.03
12:53 pm 12:53 Mostly Cloudy 21 -6.1 14 -10 74 74 W 13 20 30.10 1019 10 16 0.00 0.03
1:19 pm 13:19 Mostly Cloudy with Light Snow 21 -6.1 14 -10 74 74 W 14 22 30.12 1020 8 13 0.00 0.03
1:37 pm 13:37 Mostly Cloudy with Light Snow 21 -6.1 15 -9.4 78 78 WNW 13 20 30.12 1020 2 3 0.00 0.03
1:42 pm 13:42 Cloudy with Light Snow 22 -5.6 15 -9.4 75 75 WNW 9 15 30.12 1020 10 16 0.00 0.03
1:53 pm 13:53 Mostly Cloudy with Light Snow 22 -5.6 12 -11.1 66 66 W 15 24 30.09 1019 9 14 0.00 0.03
2:53 pm 14:53 Partly Cloudy 22 -5.6 9 -12.8 57 57 WNW 16 26 30.08 1019 10 16 0.00 0.03
3:53 pm 15:53 Partly Cloudy 20 -6.7 4 -15.6 50 50 NW 17 28 30.09 1019 10 16 0.00 0.00
4:53 pm 16:53 Mostly Cloudy 19 -7.2 5 -15 54 54 WNW 10 17 30.10 1019 10 16 0.00 0.00
5:53 pm 17:53 Mostly Cloudy 18 -7.8 5 -15 57 57 WNW 10 17 30.11 1020 10 16 0.00 0.00
6:53 pm 18:53 Mostly Cloudy 17 -8.3 8 -13.3 68 68 NW 15 24 30.12 1020 10 16 0.00 0.00
7:53 pm 19:53 Cloudy with Light Snow 14 -10 9 -12.8 80 80 NW 12 19 30.13 1020 4 6 0.00 0.03
8:19 pm 20:19 Cloudy with Light Snow 14 -10 10 -12.2 84 84 NW 10 17 30.15 1021 2 3 0.00 0.03
8:27 pm 20:27 Cloudy with Light Snow 14 -10 10 -12.2 84 84 NW 12 19 30.15 1021 2 3 0.00 0.03
8:31 pm 20:31 Cloudy with Light Snow 13 -10.6 10 -12.2 88 88 NW 15 24 30.18 1022 1 2 0.01 0.25
8:41 pm 20:41 Cloudy with Light Snow 13 -10.6 9 -12.8 84 84 WNW 14 22 30.18 1022 3 5 0.01 0.25
8:53 pm 20:53 Cloudy 12 -11.1 6 -14.4 77 77 NW 15 24 30.14 1021 7 11 0.01 0.25
9:03 pm 21:03 Cloudy 12 -11.1 6 -14.4 77 77 NNW 14 22 30.18 1022 10 16 0.00 0.00
9:53 pm 21:53 Mostly Cloudy 9 -12.8 2 -16.7 73 73 NW 13 20 30.16 1021 10 16 0.00 0.00
10:53 pm 22:53 Partly Cloudy 7 -13.9 0 -17.8 73 73 NW 14 22 30.19 1022 10 16 0.00 0.00
11:53 pm 23:53 Mostly Clear 5 -15 -2 -18.9 72 72 NW 12 19 30.19 1023 10 16 0.00 0.00

Powered by AerisWeather